Flag for Germany Weather past 2 weeks in Melle, Lower Saxony, Germany

Now
61 °F

Cool.


Feels Like: 61 °F
Forecast: 53 / 62 °F
Wind: 1 mph from North

Location: Muenster / Osnabrueck

Current Time: Sep 20, 2014 at 8:56:40 PM

Latest Report: Sep 20, 2014 at 8:20 PM


Visibility: N/A

Pressure: 29.92 "Hg

Humidity: 100%

Dew point: 61 °F

Location of MelleLocation

Historic Weather in Melle — Graph

°F

Melle temperature yesterday

Maximum temperature yesterday: 73 °F (at 2:50 PM)
Minimum temperature yesterday: 59 °F (at 3:50 AM)
Average temperature yesterday: 66 °F

Past Weeks' High & Low Weather Summary

 TemperatureHumidityPressure
High79 °F (Sep 18, 2:20 PM)100% (Sep 5, 10:20 PM)30.24 "Hg (Sep 5, 10:20 PM)
Low46 °F (Sep 9, 6:20 AM)48% (Sep 18, 2:20 PM)29.83 "Hg (Sep 19, 4:20 AM)
Average62 °F84%30.02 "Hg
* Reported Sep 5 3:20 PM — Sep 20 3:20 PM, Melle, Weather by CustomWeather, © 2014

Note: Actual official high and low records may vary slightly from our data, if they occured in-between our weather recording intervals... More about our weather records

Advertising

Melle weather history for previous 24 hours

 ConditionsComfort  
Time TempWeatherWind HumidityBarometerVisibility
3:20 PM
Sep 20
73 °FBroken clouds.6 mph69%29.92 "Hg4 mi
2:50 PM72 °FBroken clouds.3 mph73%29.92 "Hg4 mi
2:20 PM72 °FPartly sunny.5 mph78%29.92 "Hg5 mi
1:50 PM72 °FPartly sunny.6 mph73%29.95 "Hg5 mi
1:20 PM72 °FBroken clouds.6 mph73%29.95 "Hg4 mi
12:20 PM70 °FFog.5 mph83%29.95 "Hg3 mi
11:50 AM68 °FFog.3 mph83%29.95 "Hg2 mi
11:20 AM68 °FFog.2 mph88%29.95 "Hg2 mi
10:50 AM64 °FFog.2 mph94%29.95 "Hg1 mi
10:20 AM63 °FFog.2 mph100%29.95 "Hg1 mi
9:50 AM63 °FFog.2 mph100%29.95 "Hg1 mi
9:20 AM61 °FFog.1 mph100%29.92 "Hg0 mi
8:50 AM61 °FFog.2 mph100%29.92 "Hg0 mi
8:20 AM59 °FFog.1 mph100%29.92 "Hg1 mi
7:50 AM59 °FFog.2 mph100%29.92 "Hg1 mi
7:20 AM57 °FFog.2 mph100%29.92 "Hg0 mi
6:50 AM59 °FFog.2 mph100%29.92 "Hg0 mi
6:20 AM57 °FFog.2 mph100%29.92 "Hg0 mi
5:50 AM59 °FFog.2 mph100%29.89 "Hg1 mi
5:20 AM59 °FFog.2 mph100%29.92 "Hg1 mi
4:50 AM59 °FFog.1 mph100%29.89 "Hg1 mi
4:20 AM61 °FFog.2 mph100%29.89 "Hg0 mi
3:50 AM61 °FFog.2 mph100%29.92 "Hg0 mi
3:20 AM59 °FFog.1 mph100%29.92 "Hg0 mi
2:50 AM59 °FFog.1 mph100%29.92 "Hg1 mi
2:20 AM59 °FFog.1 mph100%29.92 "Hg0 mi
1:50 AM59 °FFog.2 mph100%29.92 "Hg0 mi
1:20 AM59 °FFog.2 mph100%29.89 "Hg0 mi
12:50 AM61 °FFog.1 mph100%29.92 "Hg1 mi
12:20 AM63 °FFog.1 mph100%29.92 "Hg2 mi
11:50 PM
Sep 19
64 °FFog.2 mph94%29.92 "Hg2 mi
11:20 PM64 °FFog.2 mph94%29.92 "Hg2 mi
10:50 PM64 °FFog.3 mph94%29.92 "Hg3 mi
10:20 PM64 °FFog.5 mph94%29.89 "Hg3 mi
9:50 PM64 °FFog.2 mph94%29.89 "Hg3 mi
9:20 PM64 °FPartly cloudy.3 mph94%29.89 "Hg4 mi
8:50 PM66 °FPartly cloudy.1 mph88%29.89 "Hg4 mi
8:20 PM68 °FBroken clouds.1 mph88%29.89 "Hg4 mi
Weather by CustomWeather, © 2014

See weather overviewHow to use our weather pages